Flag for U.S.A. Weather past 2 weeks in Kilgore, Texas, U.S.A.

Now
85 °F

Sunny.


Feels Like: 86 °F
Forecast: 68 / 91 °F
Wind: 5 mph from Southeast

Location: Gregg County Airport

Current Time: Aug 28, 2015 at 8:09:55 PM

Latest Report: Aug 28, 2015 at 6:53 PM


Visibility: 10 mi

Pressure: 29.93 "Hg

Humidity: 50%

Dew point: 64 °F

Location of KilgoreLocation

Historic Weather in Kilgore — Graph

°F

Kilgore temperature yesterday

Maximum temperature yesterday: 88 °F (at 1:53 PM)
Minimum temperature yesterday: 67 °F (at 5:53 AM)
Average temperature yesterday: 77 °F

Past Weeks' High & Low Weather Summary

 TemperatureHumidityPressure
High98 °F (Aug 18, 4:53 PM)97% (Aug 21, 6:53 AM)30.14 "Hg (Aug 21, 6:53 AM)
Low65 °F (Aug 26, 5:01 AM)26% (Aug 15, 4:53 PM)29.72 "Hg (Aug 18, 6:53 PM)
Average81 °F70%29.97 "Hg
* Reported Aug 13 6:53 PM — Aug 28 6:53 PM, Kilgore, Weather by CustomWeather, © 2015

Note: Actual official high and low records may vary slightly from our data, if they occured in-between our weather recording intervals... More about our weather records

Advertising

Kilgore weather history for previous 24 hours

 ConditionsComfort  
Time TempWeatherWind HumidityBarometerVisibility
6:53 PM
Fri, Aug 28
85 °FSunny.5 mph50%29.93 "Hg10 mi
5:53 PM87 °FSunny.5 mph43%29.93 "Hg10 mi
4:53 PM88 °FSunny.8 mph42%29.94 "Hg10 mi
3:53 PM88 °FSunny.9 mph43%29.95 "Hg10 mi
2:53 PM89 °FSunny.N/A41%29.97 "Hg10 mi
1:53 PM88 °FSunny.5 mph42%29.99 "Hg10 mi
12:53 PM85 °FSunny.5 mph46%30.01 "Hg10 mi
11:53 AM83 °FSunny.6 mph51%30.03 "Hg10 mi
10:53 AM81 °FSunny.6 mph56%30.03 "Hg10 mi
9:53 AM77 °FSunny.5 mph62%30.01 "Hg10 mi
8:53 AM73 °FSunny.6 mph74%30.01 "Hg10 mi
7:53 AM68 °FSunny.3 mph87%30.01 "Hg10 mi
6:53 AM65 °FClear.No wind91%29.99 "Hg10 mi
5:53 AM66 °FClear.3 mph90%29.99 "Hg10 mi
4:53 AM68 °FClear.No wind87%29.99 "Hg10 mi
3:53 AM69 °FClear.5 mph87%29.98 "Hg10 mi
2:53 AM69 °FClear.No wind87%29.99 "Hg10 mi
1:53 AM72 °FClear.5 mph78%29.99 "Hg10 mi
12:53 AM73 °FClear.7 mph79%29.99 "Hg10 mi
11:53 PM
Thu, Aug 27
72 °FClear.5 mph81%30.00 "Hg10 mi
10:53 PM74 °FClear.6 mph79%30.00 "Hg10 mi
9:53 PM74 °FClear.3 mph82%30.01 "Hg10 mi
8:53 PM77 °FClear.3 mph77%29.99 "Hg10 mi
Weather by CustomWeather, © 2015

See weather overviewHow to use our weather pages